Location: ??????
(41.3164°N, 22.6615°E)
Time: 16:56:40
(UTC+00:00)

ZACube-1 - Pass Details

Date: 28 June 2022
Orbit: 582 x 661 km, 97.6° (Epoch: 09 August)

Event Time Altitude Azimuth Distance (km) Brightness Sun altitude
Rises 01:18:44 0° 30° (NNE) 2,940 ? -14.8°
Reaches altitude 10° 01:21:37 10° 50° (NE) 2,041 ? -14.5°
Maximum altitude 01:24:35 17° 92° (E) 1,613 ? -14.1°
Drops below altitude 10° 01:27:34 10° 134° (SE) 2,056 ? -13.7°
Sets 01:30:28 0° 154° (SSE) 2,970 ? -13.4°
